Hundvaag 1 weather for Apr 1992
Month no. 58
Obs.
Da.
Temp. Dew Point Precip. Wind
Speed
Wind gusts Cloud cover Press. Humidity Wind dir. Sunny OPT
01.04.1992 1,1   0,2                
02.04.1992 3,1   0,0             1  
03.04.1992 1,6   0,0                
04.04.1992 3,9   2,4             1  
05.04.1992 3,9   0,0             1  
06.04.1992 4,0   2,8                
07.04.1992 3,1   1,0                
08.04.1992 0,7   0,0             1  
09.04.1992 1,0   0,0             1  
10.04.1992 7,2   0,0                
11.04.1992 7,8   0,0                
12.04.1992 6,9   7,1                
13.04.1992 4,0   16,0             1  
14.04.1992 3,7   3,0                
15.04.1992 3,8   3,1             1  
16.04.1992 -1,0   0,0             1  
17.04.1992 6,4   3,0                
18.04.1992 6,3   6,0                
19.04.1992 4,3   0,0                
20.04.1992 3,3   0,1             1  
21.04.1992 2,5   0,0                
22.04.1992 3,6   0,0                
23.04.1992 2,0   0,0             1  
24.04.1992 3,9   4,1             1  
25.04.1992 8,1   0,0                
26.04.1992 9,6   0,0             1  
27.04.1992 6,4   9,4             1  
28.04.1992 6,0   14,2             1  
29.04.1992 4,1   1,0                
30.04.1992 5,8   1,0                
                       
Avrg/Sum 4,2   74,4             14